[[{"header":{"parameterUnit":"m.s-1","parameterCategory":1,"la1":30.2991,"la2":30.254,"lo1":-89.0895,"lo2":-89.0444,"dy":0.0017,"dx":0.0017,"nx":28,"ny":28,"refTime":"2023-10-01T09:00:00:Z","depth":0,"parameterNumber":2,"parameterNumberName":"U-component_of_WINDS"},"data":[0,0,0,0,0,0,0,0,0,0,0,0,0,0,0,0,0,0,0,0,0,0,0,0,0,0,0,0,0,0,0,0,0,0,0,0,0,0,0,0,0,0,0,0,0,0,0,0,0,0,0,0,0,0,0,0,0,0,-6.2748,-6.2749,0,-6.2823,-6.2824,-6.2825,-6.2634,-6.2628,-6.2622,-6.2617,-6.2696,-6.2703,-6.2711,0,0,0,0,0,0,0,0,0,0,0,0,0,-6.2441,-6.2448,-6.2748,-6.2749,-6.275,-6.2823,-6.2824,-6.2825,-6.2635,-6.2628,-6.2621,-6.2614,-6.2693,-6.2702,-6.2711,0,0,0,0,0,0,0,0,0,0,0,0,0,-6.2552,-6.245,-6.2748,-6.2664,-6.2657,-6.2823,-6.2824,-6.2825,-6.2637,-6.2628,-6.2619,-6.2611,-6.269,-6.2701,-6.2713,-6.2963,0,0,-6.2748,-6.2753,0,0,0,0,0,0,0,0,-6.2546,-6.2563,-6.2675,-6.267,-6.2663,-6.271,-6.2745,-6.2872,-6.2639,-6.2645,-6.2617,-6.2606,-6.2708,-6.2717,-6.2751,-6.2967,-6.297,-6.2749,-6.2756,-6.2761,-6.2764,0,0,0,0,0,0,0,-6.2538,-6.2559,-6.2778,-6.2677,-6.267,-6.2623,-6.2629,-6.2768,-6.2726,-6.2644,-6.263,-6.2641,-6.2703,-6.2741,-6.2752,-6.2972,-6.2748,-6.2759,-6.2766,-6.277,-6.3397,-6.3406,0,0,0,0,0,0,-6.2541,-6.2554,-6.2775,-6.278,-6.2581,-6.2636,-6.2642,-6.2704,-6.2724,-6.2718,-6.2649,-6.2632,-6.2725,-6.2738,-6.2754,-6.3048,-6.2761,-6.2771,-6.2778,-6.3387,-6.3399,-6.341,0,0,0,0,0,0,-6.2535,-6.2563,-6.2772,-6.2663,-6.2686,-6.2651,-6.2722,-6.271,-6.2748,-6.2728,-6.2719,-6.2695,-6.2719,-6.2737,-6.2912,-6.3048,-6.2777,-6.2787,-6.3376,-6.3391,-6.3404,-6.364,0,0,0,0,0,0,-6.2527,-6.2562,-6.2656,-6.2667,-6.2693,-6.293,-6.273,-6.2718,-6.2768,-6.2747,-6.2769,-6.2764,-6.2713,-6.2896,-6.2924,-6.3059,-6.2796,-6.3363,-6.3383,-6.34,-6.362,-6.3661,-6.3696,0,0,0,0,0,-6.2517,-6.272,-6.2662,-6.269,-6.281,-6.2938,-6.2953,-6.289,-6.278,-6.2875,-6.2862,-6.2763,-6.3029,-6.2916,-6.2945,-6.3086,-6.3355,-6.3377,-6.3398,-6.3603,-6.3653,-6.3695,0,0,0,0,0,0,-6.2727,-6.272,-6.2655,-6.2868,-6.2905,-6.2906,-6.3023,-6.2945,-6.3014,-6.2992,-6.2911,-6.2917,-6.3108,-6.3114,-6.2988,-6.333,-6.3173,-6.3202,-6.3319,-6.3366,-6.3403,-6.3398,-6.2806,0,0,0,0,0,-6.2798,-6.2902,-6.289,-6.3079,-6.3101,-6.306,-6.3113,-6.3061,-6.3097,-6.3112,-6.3111,-6.315,-6.3242,-6.3304,-6.3388,-6.362,-6.3622,-6.3732,-6.377,-6.3801,-6.3827,-6.3951,-6.3999,-6.3482,-6.3481,-6.3481,0,0,-6.2946,-6.2955,-6.3026,-6.3122,-6.3144,-6.3254,-6.3074,-6.3198,-6.3279,-6.313,-6.3295,-6.3297,-6.3335,-6.354,-6.363,-6.3551,-6.3971,-6.3829,-6.3854,-6.3863,-6.3978,-6.4027,-6.4071,-6.3496,-6.3494,-6.3491,0,0,-6.3271,-6.3289,-6.3447,-6.3474,-6.3511,-6.3482,-6.3521,-6.3534,-6.3529,-6.3693,-6.3584,-6.3679,-6.384,-6.3871,-6.3908,-6.4247,-6.4159,-6.4276,-6.4475,-6.4596,-6.4637,-6.4673,-6.4794,-6.4838,-6.4302,-6.4303,-6.4303,0,-6.345,-6.3611,-6.3539,-6.3671,-6.3717,-6.3587,-6.3747,-6.3777,-6.384,-6.3874,-6.3785,-6.3983,-6.4,-6.421,-6.4293,-6.4327,-6.4369,-6.4273,-6.4637,-6.4672,-6.4704,-6.4819,-6.4864,-6.4317,-6.4315,-6.4314,-6.4312,0,-6.383,-6.3943,-6.4067,-6.4131,-6.419,-6.4336,-6.4287,-6.4356,-6.4299,-6.4281,-6.445,-6.4465,-6.4549,-6.4595,-6.4542,-6.4799,-6.4749,-6.465,-6.4491,-6.4769,-6.4875,-6.4918,-6.4337,-6.4332,-6.4328,-6.4324,0,0,-6.4289,-6.4311,-6.4358,-6.4385,-6.4416,-6.4503,-6.4643,-6.4725,-6.4786,-6.4834,-6.495,-6.5089,-6.4997,-6.5039,-6.4988,-6.5095,-6.5362,-6.4982,-6.4982,-6.5052,-6.5647,-6.5722,-6.5774,-6.5304,-6.5312,-6.5319,-6.5644,0,-6.461,-6.4849,-6.4789,-6.5028,-6.5132,-6.5011,-6.5133,-6.5166,-6.5152,-6.5239,-6.5224,-6.5324,-6.5195,-6.522,-6.532,-6.5309,-6.5481,-6.5284,-6.5412,-6.5417,-6.5406,-6.5829,-6.5908,-6.6214,-6.5685,-6.5692,-6.5697,0,-6.5016,-6.5079,-6.5328,-6.5343,-6.5384,-6.5495,-6.5566,-6.565,-6.5685,-6.5668,-6.5716,-6.5644,-6.5782,-6.5623,-6.5813,-6.5681,-6.573,-6.5732,-6.5743,-6.5752,-6.5574,-6.585,-6.631,-6.6356,-6.5762,-6.5757,-6.5752,0,-6.5325,-6.5473,-6.5641,-6.5668,-6.5689,-6.577,-6.5783,-6.5809,-6.5863,-6.5925,-6.5959,-6.6037,-6.608,-6.6142,-6.6093,-6.5981,-6.6292,-6.6128,-6.6282,-6.6284,-6.6352,-6.6349,-6.6827,-6.6385,-6.6384,-6.6384,-6.6383,0,-6.569,-6.5847,-6.578,-6.5884,-6.6056,-6.5986,-6.6159,-6.6158,-6.6183,-6.6284,-6.6184,-6.6282,-6.6211,-6.6303,-6.6265,-6.6429,-6.6449,-6.6439,-6.6427,-6.6448,-6.645,-6.6478,-6.6456,-6.6396,-6.6393,-6.6391,-6.6389,0,-6.6064,-6.6026,-6.6201,-6.6207,-6.6213,-6.634,-6.6345,-6.6441,-6.642,-6.655,-6.6576,-6.6545,-6.6647,-6.6605,-6.6713,-6.6688,-6.6898,-6.6858,-6.6887,-6.6876,-6.7032,-6.7018,-6.7546,-6.7612,-6.7128,-6.7133,-6.7137,0,-6.6299,-6.6417,-6.6436,-6.6497,-6.6516,-6.6615,-6.6669,-6.6605,-6.6666,-6.6715,-6.6806,-6.69,-6.6971,-6.7142,-6.7129,-6.7212,-6.7173,-6.7352,-6.7185,-6.7202,-6.7175,-6.7169,-6.718,-6.7386,-6.7391,-6.7396,-6.74,0,-6.672,-6.6695,-6.6776,-6.6853,-6.692,-6.6977,-6.7025,-6.708,-6.7018,-6.7092,-6.7195,-6.7251,-6.7362,-6.7457,-6.7531,-6.7544,-6.7463,-6.7453,-6.7492,-6.7515,-6.7526,-6.7522,-6.6978,-6.7441,-6.7436,-6.7433,-6.7431,-6.743,-6.7031,-6.713,-6.7159,-6.7254,-6.7283,-6.7331,-6.7421,-6.7412,-6.7498,-6.7582,-6.754,-6.7661,-6.7693,-6.7784,-6.7809,-6.7903,-6.7832,-6.789,-6.7905,-6.792,-6.7941,-6.7512,-6.7916,-6.7915,-6.7914,-6.7913,-6.7912,0,-6.7446,-6.7459,-6.7546,-6.7617,-6.7692,-6.7608,-6.7657,-6.7725,-6.7833,-6.787,-6.7943,-6.8063,-6.8154,-6.8149,-6.8234,-6.831,-6.8275,-6.8335,-6.8328,-6.8333,-6.7999,-6.7955,-6.8362,-6.8362,-6.8362,-6.8362,-6.8362,-6.8362,-6.7671,-6.7834,-6.7814,-6.7991,-6.8002,-6.812,-6.8155,-6.8199,-6.8228,-6.8366,-6.8442,-6.8438,-6.8458,-6.8544,-6.8625,-6.8621,-6.8657,-6.8731,-6.8713,-6.8401,-6.8356,-6.8314,-6.8272,-6.8739,-6.8739,-6.9039,-6.9042,-6.9044]},{"header":{"parameterUnit":"m.s-1","parameterCategory":1,"la1":30.2991,"la2":30.254,"lo1":-89.0895,"lo2":-89.0444,"dy":0.0017,"dx":0.0017,"nx":28,"ny":28,"refTime":"2023-10-01T09:00:00:Z","depth":0,"parameterNumber":3,"parameterNumberName":"V-component_of_WINDS"},"data":[0,0,0,0,0,0,0,0,0,0,0,0,0,0,0,0,0,0,0,0,0,0,0,0,0,0,0,0,0,0,0,0,0,0,0,0,0,0,0,0,0,0,0,0,0,0,0,0,0,0,0,0,0,0,0,0,0,0,-1.8146,-1.8146,0,-1.8147,-1.8148,-1.8148,-1.8127,-1.8127,-1.8126,-1.8126,-1.8126,-1.8127,-1.8127,0,0,0,0,0,0,0,0,0,0,0,0,0,-1.8125,-1.8125,-1.8146,-1.8146,-1.8146,-1.8147,-1.8148,-1.8148,-1.8128,-1.8127,-1.8126,-1.8126,-1.8126,-1.8127,-1.8127,0,0,0,0,0,0,0,0,0,0,0,0,0,-1.8131,-1.8125,-1.8146,-1.8137,-1.8136,-1.8147,-1.8148,-1.8148,-1.8128,-1.8127,-1.8126,-1.8125,-1.8126,-1.8127,-1.8128,-1.8149,0,0,-1.813,-1.813,0,0,0,0,0,0,0,0,-1.8131,-1.8132,-1.8138,-1.8137,-1.8136,-1.8137,-1.814,-1.8148,-1.8128,-1.8131,-1.8126,-1.8125,-1.813,-1.8131,-1.8133,-1.8149,-1.8149,-1.813,-1.813,-1.8131,-1.8131,0,0,0,0,0,0,0,-1.813,-1.8131,-1.8147,-1.8138,-1.8137,-1.8131,-1.8131,-1.8141,-1.8135,-1.813,-1.8129,-1.8129,-1.813,-1.8132,-1.8133,-1.8149,-1.813,-1.8131,-1.8131,-1.8131,-1.8179,-1.818,0,0,0,0,0,0,-1.8131,-1.8131,-1.8147,-1.8147,-1.8131,-1.8132,-1.8132,-1.8137,-1.8135,-1.8134,-1.813,-1.8128,-1.8131,-1.8132,-1.8133,-1.8156,-1.8131,-1.8132,-1.8132,-1.8179,-1.818,-1.818,0,0,0,0,0,0,-1.8131,-1.8133,-1.8147,-1.8139,-1.814,-1.8134,-1.8139,-1.8138,-1.814,-1.8135,-1.8133,-1.8134,-1.813,-1.8131,-1.8144,-1.8155,-1.8132,-1.8133,-1.8178,-1.8179,-1.818,-1.8203,0,0,0,0,0,0,-1.813,-1.8133,-1.8141,-1.8139,-1.814,-1.8159,-1.814,-1.8138,-1.8141,-1.8139,-1.8138,-1.8137,-1.813,-1.8143,-1.8145,-1.8156,-1.8133,-1.8177,-1.8178,-1.818,-1.8201,-1.8205,-1.8208,0,0,0,0,0,-1.813,-1.8148,-1.8142,-1.8144,-1.8151,-1.816,-1.8161,-1.8153,-1.8142,-1.815,-1.8147,-1.8137,-1.8154,-1.8145,-1.8147,-1.8158,-1.8176,-1.8178,-1.818,-1.8199,-1.8204,-1.8208,0,0,0,0,0,0,-1.8152,-1.8148,-1.8141,-1.8159,-1.816,-1.8156,-1.8167,-1.8158,-1.8162,-1.816,-1.8149,-1.8149,-1.8163,-1.8162,-1.8152,-1.8177,-1.8163,-1.8165,-1.8177,-1.8182,-1.8185,-1.8185,-1.8134,0,0,0,0,0,-1.8159,-1.8167,-1.8163,-1.8179,-1.818,-1.8173,-1.8177,-1.817,-1.8171,-1.8171,-1.8168,-1.8169,-1.8174,-1.8178,-1.8182,-1.8201,-1.8199,-1.8209,-1.8212,-1.8215,-1.8217,-1.8225,-1.8229,-1.8186,-1.8186,-1.8186,0,0,-1.8174,-1.8173,-1.8178,-1.8184,-1.8184,-1.8191,-1.8174,-1.8183,-1.8188,-1.8172,-1.8184,-1.8182,-1.8181,-1.8197,-1.8203,-1.8196,-1.8228,-1.8218,-1.822,-1.822,-1.8227,-1.8231,-1.8235,-1.8188,-1.8187,-1.8187,0,0,-1.8205,-1.8205,-1.8218,-1.8218,-1.8218,-1.8213,-1.8216,-1.8213,-1.8211,-1.8223,-1.821,-1.8216,-1.8226,-1.8225,-1.8227,-1.8255,-1.8245,-1.8257,-1.8274,-1.8282,-1.8285,-1.8288,-1.8297,-1.83,-1.8259,-1.8259,-1.8259,0,-1.8224,-1.8235,-1.8226,-1.8235,-1.8237,-1.8223,-1.8235,-1.8235,-1.8237,-1.8238,-1.823,-1.8241,-1.824,-1.8253,-1.826,-1.8262,-1.8264,-1.8257,-1.8285,-1.8288,-1.8291,-1.8299,-1.8303,-1.826,-1.826,-1.826,-1.826,0,-1.8257,-1.8265,-1.8275,-1.8276,-1.8279,-1.829,-1.8282,-1.8286,-1.8279,-1.8274,-1.8285,-1.8283,-1.8286,-1.8289,-1.8283,-1.8301,-1.8297,-1.8287,-1.8273,-1.8296,-1.8304,-1.8307,-1.8262,-1.8262,-1.8261,-1.8261,0,0,-1.8303,-1.8298,-1.8302,-1.8301,-1.8299,-1.8304,-1.8314,-1.8316,-1.8319,-1.8321,-1.8327,-1.8335,-1.8325,-1.8327,-1.832,-1.8327,-1.8347,-1.8316,-1.8316,-1.8321,-1.8366,-1.8373,-1.8377,-1.8341,-1.8341,-1.8342,-1.8366,0,-1.8332,-1.8348,-1.8339,-1.8356,-1.8362,-1.8348,-1.8356,-1.8355,-1.835,-1.8354,-1.8349,-1.8354,-1.8342,-1.8343,-1.8349,-1.8344,-1.8356,-1.8342,-1.8346,-1.8347,-1.8346,-1.8381,-1.8389,-1.8411,-1.8369,-1.8369,-1.837,0,-1.8368,-1.837,-1.8387,-1.8382,-1.8384,-1.8392,-1.8392,-1.8397,-1.8395,-1.8391,-1.8391,-1.8382,-1.839,-1.8376,-1.8385,-1.8376,-1.8377,-1.8375,-1.8375,-1.8375,-1.8359,-1.8381,-1.8419,-1.8422,-1.8375,-1.8374,-1.8374,0,-1.8399,-1.8405,-1.8416,-1.8416,-1.8411,-1.8416,-1.8414,-1.8411,-1.8412,-1.8413,-1.8413,-1.8415,-1.8416,-1.8417,-1.8408,-1.8399,-1.8418,-1.8404,-1.8414,-1.8415,-1.8419,-1.8419,-1.8457,-1.8421,-1.8421,-1.8421,-1.8421,0,-1.8432,-1.8443,-1.8429,-1.8436,-1.8447,-1.8436,-1.8447,-1.8444,-1.8441,-1.8446,-1.8433,-1.8438,-1.8426,-1.8429,-1.8422,-1.843,-1.8431,-1.8428,-1.8425,-1.8428,-1.8429,-1.8429,-1.8427,-1.8422,-1.8422,-1.8422,-1.8421,0,-1.8468,-1.846,-1.847,-1.8463,-1.8462,-1.847,-1.8464,-1.8469,-1.8463,-1.847,-1.847,-1.8461,-1.8464,-1.8455,-1.8457,-1.8452,-1.8464,-1.8459,-1.8464,-1.8463,-1.8474,-1.8472,-1.8512,-1.8516,-1.8479,-1.8479,-1.848,0,-1.8489,-1.8497,-1.8491,-1.8493,-1.8491,-1.8495,-1.8496,-1.8485,-1.8487,-1.8484,-1.8489,-1.8491,-1.8492,-1.8497,-1.849,-1.849,-1.8486,-1.8499,-1.8486,-1.8488,-1.8484,-1.8484,-1.8484,-1.8502,-1.8503,-1.8503,-1.8503,0,-1.8527,-1.8522,-1.8525,-1.8525,-1.8526,-1.8526,-1.8525,-1.8528,-1.8515,-1.8518,-1.852,-1.8521,-1.8522,-1.8523,-1.8522,-1.8519,-1.8509,-1.8508,-1.851,-1.8513,-1.8515,-1.8513,-1.8471,-1.8507,-1.8507,-1.8506,-1.8506,-1.8506,-1.8556,-1.8562,-1.8557,-1.856,-1.8557,-1.8556,-1.856,-1.8554,-1.8556,-1.8556,-1.8549,-1.8553,-1.8548,-1.8546,-1.8544,-1.8546,-1.8539,-1.8543,-1.8544,-1.8544,-1.8546,-1.8515,-1.8545,-1.8545,-1.8545,-1.8545,-1.8545,0,-1.8593,-1.8589,-1.8591,-1.8589,-1.8591,-1.8581,-1.8578,-1.858,-1.8583,-1.858,-1.8581,-1.8582,-1.8583,-1.8576,-1.8576,-1.8578,-1.8574,-1.8579,-1.8578,-1.8577,-1.8552,-1.855,-1.8582,-1.8582,-1.8582,-1.8582,-1.8582,-1.8582,-1.8612,-1.862,-1.8614,-1.8621,-1.8617,-1.862,-1.8619,-1.8617,-1.8614,-1.8617,-1.8617,-1.8612,-1.8607,-1.8606,-1.8606,-1.8604,-1.8604,-1.861,-1.8606,-1.8583,-1.8579,-1.8576,-1.8573,-1.861,-1.861,-1.8631,-1.8631,-1.8631]}]]